Content
SEND FEEDBACK

Daily
Averages
Monthly
Summary
Switzerland

GENEVA, SWITZERLAND


Home > Europe > Switzerland
Elevation: 1364 feet     Latitude: 46 15N     Longitude: 006 08E

WEATHER
 
SELECT A DAY
Number of Records: 317,120;   Date Range: 7/1/96 - 12/17/14
 
SHARE

PRINT THIS DATA

[ ← Previous Day ]
WEATHER ALMANAC - JANUARY 22, 2013
[ Next Day → ]
[ °C ]   °F
Weather ElementAverageHighLow
Temperature35.5 °F42.8 °F (4:20 pm)26.6 °F (10:50 pm)
Dewpoint29.9 °F32 °F (12:20 am)24.8 °F (10:50 pm)
Humidity78.3 %93 % (8:50 pm)52 % (5:00 pm)
Barometer29.65 in29.75 in (11:00 pm)29.56 in (12:20 am)
Wind Speed6.2 mph18.4 mph (12:20 am)
Weather ElementAverage
Visibility7.5 mi
Wind DirectionS (174.5 °)

Weather ElementTotal
Precipitation---
Heating Degree Days30.3 (Base 65)
Averaged from 66 records on January 22, 2013
WEATHER CONDITIONS BREAKOUT
WIND DIRECTION BREAKOUT
WEATHER BY HOUR - JANUARY 22, 2013
[ °C ]   °F
Local TimeTemperatureDewpointHumidityBarometerVisibilityWind DirectionWind SpeedGust SpeedPrecipitationEventsConditions
12:20 AM37.4 °F32.0 °F81 %29.56 in5.0 miSW (220°)18.4 mphRain-SnowLight Rain Showers
12:50 AM35.6 °F32.0 °F87 %29.56 in5.0 miSSW (210°)15.0 mphRain-SnowLight Rain Showers
1:00 AM36.0 °F32.0 °F81 %29.63 in5.0 miSSW (210°)12.7 mphSnowLight Snow Showers
1:20 AM35.6 °F32.0 °F87 %29.56 in5.0 miSSW (210°)11.5 mphMostly Cloudy
1:50 AM35.6 °F32.0 °F87 %29.59 in5.0 miSouth (190°)13.8 mphMostly Cloudy
2:00 AM36.0 °F31.0 °F76 %29.64 inSSW (200°)13.8 mph
2:50 AM35.6 °F32.0 °F87 %29.59 in5.0 miSSW (200°)15.0 mphRain-SnowLight Rain Showers
3:00 AM36.0 °F32.0 °F79 %29.66 inSSW (210°)15.0 mph
3:20 AM35.6 °F32.0 °F87 %29.62 in6.2 miSSW (210°)11.5 mphMostly Cloudy
3:50 AM35.6 °F32.0 °F87 %29.62 in6.2 miSSW (210°)13.8 mphMostly Cloudy
4:20 AM35.6 °F30.2 °F81 %29.62 in6.2 miSSW (200°)11.5 mphMostly Cloudy
4:50 AM35.6 °F30.2 °F81 %29.62 in6.2 miSSW (210°)13.8 mphMostly Cloudy
5:00 AM36.0 °F29.0 °F68 %29.69 inSSW (200°)12.7 mph
5:20 AM35.6 °F30.2 °F81 %29.62 in6.2 miSSW (210°)11.5 mphMostly Cloudy
5:50 AM35.6 °F30.2 °F81 %29.65 in6.2 miSSW (210°)10.4 mphMostly Cloudy
6:00 AM36.0 °F30.0 °F73 %29.70 inSSW (200°)8.1 mph
6:20 AM35.6 °F32.0 °F87 %29.65 in6.2 miWSW (240°)6.9 mphRain-SnowLight Snow Showers
6:50 AM35.6 °F32.0 °F87 %29.65 in6.2 miWSW (250°)6.9 mphRain-SnowLight Snow Showers
7:00 AM35.0 °F31.0 °F79 %29.72 in9.0 miSW (230°)8.1 mphSnowLight Snow Showers
7:20 AM35.6 °F32.0 °F87 %29.65 in6.2 miSW (220°)9.2 mphScattered Clouds
7:50 AM35.6 °F30.2 °F81 %29.65 in6.2 miSSW (210°)10.4 mphPartly Cloudy
8:00 AM35.0 °F29.0 °F73 %29.73 inWSW (250°)5.8 mph
8:20 AM33.8 °F30.2 °F87 %29.68 in6.2 miWSW (240°)6.9 mphPartly Cloudy
8:50 AM33.8 °F30.2 °F87 %29.68 in6.2 miWSW (250°)8.1 mphScattered Clouds
9:00 AM34.0 °F31.0 °F82 %29.74 inWest (260°)6.9 mph
9:20 AM33.8 °F30.2 °F87 %29.68 in6.2 miWSW (250°)5.8 mphPartly Cloudy
9:50 AM35.6 °F32.0 °F87 %29.68 in6.2 miSW (230°)4.6 mphPartly Cloudy
10:20 AM37.4 °F32.0 °F81 %29.68 in6.2 miVariable3.5 mphPartly Cloudy
10:50 AM37.4 °F30.2 °F75 %29.68 in6.2 miSouth (190°)3.5 mphPartly Cloudy
11:00 AM37.0 °F29.0 °F64 %29.73 inSW (220°)4.6 mph
11:20 AM39.2 °F30.2 °F70 %29.68 in6.2 miSSW (210°)4.6 mphPartly Cloudy
11:50 AM39.2 °F30.2 °F70 %29.68 in6.2 miSW (220°)6.9 mphScattered Clouds
12:00 PM38.0 °F30.0 °F62 %29.73 inSSW (210°)5.8 mph
12:20 PM39.2 °F30.2 °F70 %29.65 in6.2 miSSW (210°)5.8 mphPartly Cloudy
12:50 PM39.2 °F30.2 °F70 %29.65 in6.2 miSW (220°)6.9 mphPartly Cloudy
1:00 PM39.0 °F30.0 °F61 %29.71 in37.0 miSW (230°)6.9 mphPartly Cloudy
1:20 PM39.2 °F30.2 °F70 %29.65 in6.2 miSW (230°)6.9 mphPartly Cloudy
1:50 PM41.0 °F32.0 °F70 %29.65 in6.2 miSW (220°)5.8 mphPartly Cloudy
2:00 PM40.0 °F30.0 °F58 %29.68 inSW (230°)5.8 mph
2:20 PM41.0 °F30.2 °F65 %29.62 in6.2 miWSW (240°)4.6 mphPartly Cloudy
2:50 PM41.0 °F32.0 °F70 %29.62 in6.2 miSW (220°)5.8 mphPartly Cloudy
3:00 PM40.0 °F31.0 °F59 %29.68 inSW (220°)5.8 mph
3:20 PM41.0 °F32.0 °F70 %29.62 in6.2 miSW (220°)5.8 mphPartly Cloudy
3:50 PM41.0 °F30.2 °F65 %29.62 in6.2 miSW (220°)5.8 mphPartly Cloudy
4:20 PM42.8 °F28.4 °F57 %29.62 in6.2 miVariable2.3 mphPartly Cloudy
4:50 PM41.0 °F30.2 °F65 %29.62 in6.2 miWSW (240°)2.3 mphPartly Cloudy
5:00 PM40.0 °F28.0 °F52 %29.68 inWSW (240°)3.5 mph
5:20 PM39.2 °F30.2 °F70 %29.62 in6.2 miWSW (240°)3.5 mphPartly Cloudy
5:50 PM37.4 °F30.2 °F75 %29.62 in6.2 miVariable2.3 mphPartly Cloudy
6:00 PM36.0 °F28.0 °F64 %29.68 inNorth2.3 mph
6:20 PM35.6 °F28.4 °F75 %29.62 in6.2 miVariable1.2 mphPartly Cloudy
6:50 PM33.8 °F30.2 °F87 %29.62 in6.2 miCalmPartly Cloudy
7:00 PM32.0 °F27.0 °F76 %29.70 in37.0 miNorth (350°)1.2 mphScattered Clouds
7:20 PM33.8 °F30.2 °F87 %29.62 in6.2 miCalmPartly Cloudy
7:50 PM33.8 °F30.2 °F87 %29.62 in6.2 miCalmPartly Cloudy
8:00 PM31.0 °F28.0 °F82 %29.71 inWest (260°)1.2 mph
8:20 PM33.8 °F30.2 °F87 %29.62 inCalmClear
8:50 PM28.4 °F26.6 °F93 %29.62 inCalmClear
9:00 PM29.0 °F27.0 °F89 %29.72 inCalm
9:20 PM28.4 °F26.6 °F93 %29.65 inCalmClear
9:50 PM28.4 °F26.6 °F93 %29.65 inCalmClear
10:20 PM28.4 °F26.6 °F93 %29.65 inVariable1.2 mphClear
10:50 PM26.6 °F24.8 °F93 %29.65 inVariable1.2 mphClear
11:00 PM27.0 °F25.0 °F88 %29.75 inNNW (340°)2.3 mph
11:20 PM26.6 °F24.8 °F93 %29.65 inVariable1.2 mphClear
11:50 PM26.6 °F24.8 °F93 %29.68 inSW (230°)3.5 mphClear
Hourly data recorded from LSGG, located miles away from Geneva, Switzerland







STORIES FROM OUR PARTNERS